Time,TemperatureF,DewpointF,PressureIn,WindDirection,WindDirectionDegrees,WindSpeedMPH,WindSpeedGustMPH,Humidity,HourlyPrecipIn,Conditions,Clouds,dailyrainin,SoftwareType,DateUTC
2013-07-18 00:11:00,66.7,66.4,29.95,NNE,22,0.0,-999.0,99,-99.99,,,0.00,Acu-Link.com,2013-07-18 04:11:00,
2013-07-18 00:27:00,66.4,66.1,29.94,NE,45,1.1,-999.0,99,-99.99,,,0.00,Acu-Link.com,2013-07-18 04:27:00,
2013-07-18 00:42:00,65.8,65.5,29.94,West,270,1.1,-999.0,99,-99.99,,,0.00,Acu-Link.com,2013-07-18 04:42:00,
2013-07-18 00:57:00,65.5,65.2,29.96,SE,135,0.0,-999.0,99,-99.99,,,0.00,Acu-Link.com,2013-07-18 04:57:00,
2013-07-18 01:12:00,65.1,64.8,29.94,West,270,1.1,-999.0,99,-99.99,,,0.00,Acu-Link.com,2013-07-18 05:12:00,
2013-07-18 01:28:00,65.5,65.2,29.94,ESE,112,0.0,-999.0,99,-99.99,,,0.00,Acu-Link.com,2013-07-18 05:28:00,
2013-07-18 01:43:00,65.7,65.4,29.94,East,90,1.7,-999.0,99,-99.99,,,0.00,Acu-Link.com,2013-07-18 05:43:00,
2013-07-18 01:58:00,65.7,65.4,29.94,NNE,22,0.0,-999.0,99,-99.99,,,0.00,Acu-Link.com,2013-07-18 05:58:00,
2013-07-18 02:13:00,66.2,65.9,29.95,NNW,337,0.0,-999.0,99,-99.99,,,0.00,Acu-Link.com,2013-07-18 06:13:00,
2013-07-18 02:28:00,66.2,65.9,29.93,WNW,292,1.7,-999.0,99,-99.99,,,0.01,Acu-Link.com,2013-07-18 06:28:00,
2013-07-18 02:44:00,66.4,66.1,29.94,NW,315,0.0,-999.0,99,-99.99,,,0.01,Acu-Link.com,2013-07-18 06:44:00,
2013-07-18 02:59:00,66.4,66.1,29.94,SW,225,0.0,-999.0,99,-99.99,,,0.01,Acu-Link.com,2013-07-18 06:59:00,
2013-07-18 03:14:00,66.6,66.3,29.95,ESE,112,1.1,-999.0,99,-99.99,,,0.01,Acu-Link.com,2013-07-18 07:14:00,
2013-07-18 03:29:00,66.7,66.4,29.94,West,270,2.2,-999.0,99,-99.99,,,0.01,Acu-Link.com,2013-07-18 07:29:00,
2013-07-18 03:45:00,66.7,66.4,29.96,SSW,202,0.0,-999.0,99,-99.99,,,0.01,Acu-Link.com,2013-07-18 07:45:00,
2013-07-18 04:00:00,66.7,66.4,29.95,NNW,337,1.7,-999.0,99,-99.99,,,0.01,Acu-Link.com,2013-07-18 08:00:00,
2013-07-18 04:15:00,66.6,66.3,29.95,SW,225,3.2,-999.0,99,-99.99,,,0.01,Acu-Link.com,2013-07-18 08:15:00,
2013-07-18 04:30:00,66.4,66.1,29.95,SSW,202,1.1,-999.0,99,-99.99,,,0.01,Acu-Link.com,2013-07-18 08:30:00,
2013-07-18 04:45:00,66.4,66.1,29.97,NW,315,0.0,-999.0,99,-99.99,,,0.01,Acu-Link.com,2013-07-18 08:45:00,
2013-07-18 05:00:00,66.2,65.9,29.97,NW,315,2.2,-999.0,99,-99.99,,,0.01,Acu-Link.com,2013-07-18 09:00:00,
2013-07-18 05:16:00,66.0,65.7,29.97,WSW,247,1.7,-999.0,99,-99.99,,,0.01,Acu-Link.com,2013-07-18 09:16:00,
2013-07-18 05:31:00,65.8,65.5,29.97,WSW,247,2.2,-999.0,99,-99.99,,,0.01,Acu-Link.com,2013-07-18 09:31:00,
2013-07-18 05:46:00,65.8,65.5,29.98,West,270,2.2,-999.0,99,-99.99,,,0.01,Acu-Link.com,2013-07-18 09:46:00,
2013-07-18 06:01:00,65.7,65.4,29.97,West,270,2.7,-999.0,99,-99.99,,,0.01,Acu-Link.com,2013-07-18 10:01:00,
2013-07-18 06:16:00,65.7,65.4,29.98,SW,225,3.7,-999.0,99,-99.99,,,0.01,Acu-Link.com,2013-07-18 10:16:00,
2013-07-18 06:32:00,65.8,65.5,29.99,SSW,202,0.0,-999.0,99,-99.99,,,0.01,Acu-Link.com,2013-07-18 10:32:00,
2013-07-18 06:47:00,66.0,65.4,29.99,ESE,112,0.0,-999.0,98,-99.99,,,0.01,Acu-Link.com,2013-07-18 10:47:00,
2013-07-18 07:02:00,66.4,65.8,29.99,NNE,22,0.0,-999.0,98,-99.99,,,0.01,Acu-Link.com,2013-07-18 11:02:00,
2013-07-18 07:17:00,66.7,65.8,30.00,NNE,22,0.0,-999.0,97,-99.99,,,0.01,Acu-Link.com,2013-07-18 11:17:00,
2013-07-18 07:33:00,67.1,65.9,30.01,NE,45,0.0,-999.0,96,-99.99,,,0.01,Acu-Link.com,2013-07-18 11:33:00,
2013-07-18 07:48:00,68.0,66.8,30.01,WSW,247,0.0,-999.0,96,-99.99,,,0.01,Acu-Link.com,2013-07-18 11:48:00,
2013-07-18 08:03:00,68.5,65.8,30.00,WNW,292,1.7,-999.0,91,-99.99,,,0.01,Acu-Link.com,2013-07-18 12:03:00,
2013-07-18 08:18:00,69.1,65.7,30.00,WSW,247,4.2,-999.0,89,-99.99,,,0.01,Acu-Link.com,2013-07-18 12:18:00,
2013-07-18 08:33:00,70.0,66.6,30.01,North,0,0.0,-999.0,89,-99.99,,,0.01,Acu-Link.com,2013-07-18 12:33:00,
2013-07-18 08:49:00,70.3,66.6,30.00,WSW,247,0.0,-999.0,88,-99.99,,,0.01,Acu-Link.com,2013-07-18 12:49:00,
2013-07-18 09:04:00,70.3,66.2,30.01,WSW,247,2.2,-999.0,87,-99.99,,,0.01,Acu-Link.com,2013-07-18 13:04:00,
2013-07-18 09:19:00,72.1,66.3,30.01,WSW,247,2.7,-999.0,82,-99.99,,,0.01,Acu-Link.com,2013-07-18 13:19:00,
2013-07-18 09:34:00,71.2,66.5,29.99,SSE,157,3.7,-999.0,85,-99.99,,,0.01,Acu-Link.com,2013-07-18 13:34:00,
2013-07-18 09:49:00,72.3,66.8,30.00,WSW,247,3.2,-999.0,83,-99.99,,,0.01,Acu-Link.com,2013-07-18 13:49:00,
2013-07-18 10:05:00,73.0,66.8,29.99,West,270,0.0,-999.0,81,-99.99,,,0.01,Acu-Link.com,2013-07-18 14:05:00,
2013-07-18 10:20:00,73.2,66.6,29.99,SSW,202,1.1,-999.0,80,-99.99,,,0.01,Acu-Link.com,2013-07-18 14:20:00,
2013-07-18 10:35:00,74.1,67.2,29.98,West,270,4.2,-999.0,79,-99.99,,,0.01,Acu-Link.com,2013-07-18 14:35:00,
2013-07-18 10:50:00,73.9,66.2,29.99,WSW,247,5.8,-999.0,77,-99.99,,,0.01,Acu-Link.com,2013-07-18 14:50:00,
2013-07-18 11:05:00,74.1,66.8,29.99,WSW,247,5.8,-999.0,78,-99.99,,,0.01,Acu-Link.com,2013-07-18 15:05:00,
2013-07-18 11:21:00,76.3,67.4,29.98,South,180,1.7,-999.0,74,-99.99,,,0.01,Acu-Link.com,2013-07-18 15:21:00,
2013-07-18 11:36:00,75.6,67.1,29.98,WSW,247,3.2,-999.0,75,-99.99,,,0.01,Acu-Link.com,2013-07-18 15:36:00,
2013-07-18 11:51:00,76.5,67.6,29.97,SW,225,4.2,-999.0,74,-99.99,,,0.01,Acu-Link.com,2013-07-18 15:51:00,
2013-07-18 12:07:00,76.6,67.3,29.97,WSW,247,8.3,-999.0,73,-99.99,,,0.01,Acu-Link.com,2013-07-18 16:07:00,
2013-07-18 12:22:00,77.0,68.1,29.96,SW,225,5.3,-999.0,74,-99.99,,,0.01,Acu-Link.com,2013-07-18 16:22:00,
2013-07-18 12:37:00,77.7,67.9,29.96,WSW,247,5.3,-999.0,72,-99.99,,,0.01,Acu-Link.com,2013-07-18 16:37:00,
2013-07-18 12:53:00,78.1,67.1,29.97,SW,225,4.7,-999.0,69,-99.99,,,0.01,Acu-Link.com,2013-07-18 16:53:00,
2013-07-18 13:08:00,78.4,67.4,29.95,WSW,247,6.3,-999.0,69,-99.99,,,0.01,Acu-Link.com,2013-07-18 17:08:00,
2013-07-18 13:23:00,77.7,66.3,29.95,WSW,247,8.9,-999.0,68,-99.99,,,0.01,Acu-Link.com,2013-07-18 17:23:00,
2013-07-18 13:38:00,79.3,67.8,29.95,West,270,5.8,-999.0,68,-99.99,,,0.01,Acu-Link.com,2013-07-18 17:38:00,
2013-07-18 13:53:00,77.7,66.3,29.95,WSW,247,5.8,-999.0,68,-99.99,,,0.01,Acu-Link.com,2013-07-18 17:53:00,
2013-07-18 14:09:00,78.6,67.1,29.94,West,270,6.8,-999.0,68,-99.99,,,0.01,Acu-Link.com,2013-07-18 18:09:00,
2013-07-18 14:24:00,79.0,67.1,29.95,SW,225,8.3,-999.0,67,-99.99,,,0.01,Acu-Link.com,2013-07-18 18:24:00,
2013-07-18 14:39:00,80.2,67.8,29.95,WSW,247,6.3,-999.0,66,-99.99,,,0.01,Acu-Link.com,2013-07-18 18:39:00,
2013-07-18 14:55:00,80.2,66.4,29.94,SW,225,12.5,-999.0,63,-99.99,,,0.01,Acu-Link.com,2013-07-18 18:55:00,
2013-07-18 15:10:00,81.5,67.7,29.92,SW,225,5.3,-999.0,63,-99.99,,,0.01,Acu-Link.com,2013-07-18 19:10:00,
2013-07-18 15:25:00,81.9,66.6,29.92,West,270,11.9,-999.0,60,-99.99,,,0.01,Acu-Link.com,2013-07-18 19:25:00,
2013-07-18 15:40:00,81.0,66.3,29.91,NW,315,6.8,-999.0,61,-99.99,,,0.01,Acu-Link.com,2013-07-18 19:40:00,
2013-07-18 15:55:00,81.5,67.2,29.90,West,270,5.3,-999.0,62,-99.99,,,0.01,Acu-Link.com,2013-07-18 19:55:00,
2013-07-18 16:11:00,83.3,68.4,29.90,SW,225,3.7,-999.0,61,-99.99,,,0.01,Acu-Link.com,2013-07-18 20:11:00,
2013-07-18 16:26:00,81.1,67.3,29.89,WSW,247,9.4,-999.0,63,-99.99,,,0.01,Acu-Link.com,2013-07-18 20:26:00,
2013-07-18 16:41:00,80.4,66.6,29.90,WSW,247,7.8,-999.0,63,-99.99,,,0.01,Acu-Link.com,2013-07-18 20:41:00,
2013-07-18 16:56:00,79.9,66.6,29.90,West,270,5.8,-999.0,64,-99.99,,,0.01,Acu-Link.com,2013-07-18 20:56:00,
2013-07-18 17:11:00,79.3,66.9,29.89,WSW,247,5.3,-999.0,66,-99.99,,,0.01,Acu-Link.com,2013-07-18 21:11:00,
2013-07-18 17:27:00,80.4,67.1,29.90,NW,315,3.7,-999.0,64,-99.99,,,0.01,Acu-Link.com,2013-07-18 21:27:00,
2013-07-18 17:42:00,82.6,68.7,29.90,South,180,2.2,-999.0,63,-99.99,,,0.01,Acu-Link.com,2013-07-18 21:42:00,
2013-07-18 17:57:00,82.4,68.0,29.89,SW,225,5.8,-999.0,62,-99.99,,,0.01,Acu-Link.com,2013-07-18 21:57:00,
2013-07-18 18:12:00,80.8,69.2,29.88,West,270,1.1,-999.0,68,-99.99,,,0.01,Acu-Link.com,2013-07-18 22:12:00,
2013-07-18 18:27:00,80.8,69.2,29.88,South,180,0.0,-999.0,68,-99.99,,,0.01,Acu-Link.com,2013-07-18 22:27:00,
2013-07-18 18:43:00,79.5,68.8,29.88,ENE,67,0.0,-999.0,70,-99.99,,,0.01,Acu-Link.com,2013-07-18 22:43:00,
2013-07-18 18:58:00,78.6,68.8,29.90,NE,45,0.0,-999.0,72,-99.99,,,0.01,Acu-Link.com,2013-07-18 22:58:00,
2013-07-18 19:13:00,77.7,68.7,29.89,West,270,0.0,-999.0,74,-99.99,,,0.01,Acu-Link.com,2013-07-18 23:13:00,
2013-07-18 19:28:00,76.8,69.0,29.91,NW,315,0.0,-999.0,77,-99.99,,,0.01,Acu-Link.com,2013-07-18 23:28:00,
2013-07-18 19:44:00,75.9,68.5,29.90,ENE,67,0.0,-999.0,78,-99.99,,,0.01,Acu-Link.com,2013-07-18 23:44:00,
2013-07-18 19:59:00,74.7,68.5,29.91,West,270,0.0,-999.0,81,-99.99,,,0.01,Acu-Link.com,2013-07-18 23:59:00,
2013-07-18 20:14:00,73.0,67.9,29.93,WSW,247,7.8,-999.0,84,-99.99,,,0.01,Acu-Link.com,2013-07-19 00:14:00,
2013-07-18 20:29:00,71.6,66.2,29.94,WSW,247,4.2,-999.0,83,-99.99,,,0.01,Acu-Link.com,2013-07-19 00:29:00,
2013-07-18 20:44:00,69.8,65.1,29.95,West,270,1.1,-999.0,85,-99.99,,,0.02,Acu-Link.com,2013-07-19 00:44:00,
2013-07-18 21:00:00,68.9,64.9,29.93,South,180,0.0,-999.0,87,-99.99,,,0.07,Acu-Link.com,2013-07-19 01:00:00,
2013-07-18 21:15:00,68.5,65.4,29.93,ESE,112,0.0,-999.0,90,-99.99,,,0.10,Acu-Link.com,2013-07-19 01:15:00,
2013-07-18 21:30:00,68.0,65.3,29.93,NNE,22,0.0,-999.0,91,-99.99,,,0.10,Acu-Link.com,2013-07-19 01:30:00,
2013-07-18 21:45:00,67.6,65.2,29.93,East,90,0.0,-999.0,92,-99.99,,,0.10,Acu-Link.com,2013-07-19 01:45:00,
2013-07-18 22:00:00,67.5,66.0,29.93,WSW,247,0.0,-999.0,95,-99.99,,,0.10,Acu-Link.com,2013-07-19 02:00:00,
2013-07-18 22:16:00,66.7,65.2,29.92,NW,315,0.0,-999.0,95,-99.99,,,0.11,Acu-Link.com,2013-07-19 02:16:00,
2013-07-18 22:31:00,66.4,64.9,29.92,West,270,0.0,-999.0,95,-99.99,,,0.11,Acu-Link.com,2013-07-19 02:31:00,
2013-07-18 22:46:00,66.0,64.8,29.93,NNW,337,0.0,-999.0,96,-99.99,,,0.11,Acu-Link.com,2013-07-19 02:46:00,
2013-07-18 23:01:00,65.8,64.9,29.91,NE,45,0.0,-999.0,97,-99.99,,,0.11,Acu-Link.com,2013-07-19 03:01:00,
2013-07-18 23:16:00,66.0,65.4,29.92,ESE,112,1.7,-999.0,98,-99.99,,,0.11,Acu-Link.com,2013-07-19 03:16:00,
2013-07-18 23:32:00,66.0,65.4,29.91,East,90,0.0,-999.0,98,-99.99,,,0.11,Acu-Link.com,2013-07-19 03:32:00,
2013-07-18 23:47:00,65.8,65.2,29.91,NE,45,0.0,-999.0,98,-99.99,,,0.11,Acu-Link.com,2013-07-19 03:47:00,